Location: Hackbridge
(51.3833°N, 0.1500°W)
Time: 12:12:22
(UTC+00:00)

ADEOS Rocket - Pass Details

Date: 13 October 2019
Orbit: 859 x 1306 km, 98.7° (Epoch: 17 November)

Event Time Altitude Azimuth Distance (km) Brightness Sun altitude
Rises 20:54:46 0° 13° (NNE) 4,302 6.6 -34.0°
Reaches altitude 10° 20:57:33 10° 9° (N) 3,337 6.0 -34.4°
Maximum altitude 21:05:04 53° 296° (WNW) 1,553 4.2 -35.3°
Drops below altitude 10° 21:12:17 10° 223° (SW) 3,211 5.7 -36.2°
Sets 21:14:55 0° 218° (SW) 4,128 6.3 -36.5°
